Stations météo

Publicité
Biscarosse, France (7503): Température de l'air & dewpoint: 15.07.2019 16:00:00 - 21.07.2019 16:00:00 (CEST)Biscarosse, France (7503): Température de l'air 5cm: 15.07.2019 16:00:00 - 21.07.2019 16:00:00 (CEST)Biscarosse, France (7503): Température de l'air -20cm & Température de l'air -100cm: 15.07.2019 16:00:00 - 21.07.2019 16:00:00 (CEST)Biscarosse, France (7503): Vitesse du vent & gusts: 15.07.2019 16:00:00 - 21.07.2019 16:00:00 (CEST)Biscarosse, France (7503): Direction du vent: 15.07.2019 16:00:00 - 21.07.2019 16:00:00 (CEST)Biscarosse, France (7503): reduced air pressure: 15.07.2019 16:00:00 - 21.07.2019 16:00:00 (CEST)Biscarosse, France (7503): visibility: 15.07.2019 16:00:00 - 21.07.2019 16:00:00 (CEST)Biscarosse, France (7503): Ensoleillement: 15.07.2019 16:00:00 - 21.07.2019 16:00:00 (CEST)Biscarosse, France (7503): Quantités de précipitations: 15.07.2019 16:00:00 - 21.07.2019 16:00:00 (CEST)
Date & Time tt [°C] td [°C] tt 5cm [°C] tt -20cm [°C] tt -100cm [°C] ff [km/h] ff [knt] fx [km/h] fx [knt] dd ppp [hPa] vv [km] sd [min] rr [mm]
21.07.2019 16:00:00 24,6 18,1 33,8 30,5 27,2 21 11 26 14 NNW 1022,1 20 60 0,0
21.07.2019 15:00:00 24,7 16,9 33,8 30,0 27,1 19 10 24 13 NNW 1022,3 20 60 0,0
21.07.2019 14:00:00 23,8 16,8 33,3 29,8 27,2 19 10 25 14 NNW 1022,6 20 60 0,0
21.07.2019 13:00:00 24,7 16,1 29,9 29,7 27,1 17 9 22 12 NNW 1023,0 20 54 0,0
21.07.2019 12:00:00 23,7 16,5 29,0 29,8 27,1 16 9 19 10 NNW 1023,0 20 44 0,0
21.07.2019 11:00:00 23,5 16,8 25,5 30,0 27,1 10 5 22 12 ENE 1022,8 20 39 0,0
21.07.2019 10:00:00 21,7 16,6 23,0 30,4 27,1 13 7 23 12 NE 1022,7 20 26 0,0
21.07.2019 09:00:00 20,5 17,3 20,8 30,7 27,1 13 7 21 11 ENE 1022,7 20 0 0,0
21.07.2019 08:00:00 19,1 17,8 18,3 31,0 27,1 4 2 7 4 E 1022,5 20 21 0,0
21.07.2019 07:00:00 18,3 17,1 18,0 31,4 27,1 5 3 8 4 E 1022,1 20 0 0,0
21.07.2019 06:00:00 18,5 17,2 18,1 31,7 27,1 5 3 11 6 E 1021,7 20 0 0,0
21.07.2019 05:00:00 18,4 16,9 17,9 32,1 27,0 7 4 9 5 E 1021,3 20 0 0,0
21.07.2019 04:00:00 18,9 17,2 18,4 32,5 27,0 5 3 8 5 ENE 1021,4 20 0 0,0
21.07.2019 03:00:00 19,1 17,6 18,7 32,8 27,0 5 3 20 11 E 1021,4 17 0 0,0
21.07.2019 02:00:00 20,2 18,5 19,6 33,1 27,0 14 8 20 11 N 1021,3 10 0 0,0
21.07.2019 01:00:00 20,4 18,3 20,0 33,3 27,0 14 8 19 10 N 1021,5 17 0 0,0
21.07.2019 00:00:00 20,9 18,7 20,5 33,5 27,0 15 8 20 11 NNW 1021,4 20 0 0,0
20.07.2019 23:00:00 21,2 19,1 20,8 33,5 27,0 16 9 21 11 NNW 1021,0 20 0 0,0
20.07.2019 22:00:00 21,6 19,3 21,4 33,4 27,0 13 7 16 9 NW 1020,2 20 18 0,0
20.07.2019 21:00:00 22,7 18,9 23,9 33,1 27,0 12 6 21 11 NW 1019,3 20 60 0,0
20.07.2019 20:00:00 23,5 19,0 26,6 32,6 27,0 16 8 21 12 NW 1018,8 20 60 0,0
20.07.2019 19:00:00 24,6 19,7 30,3 32,1 27,1 17 9 20 11 NW 1018,5 20 60 0,0
20.07.2019 18:00:00 25,1 18,5 31,5 31,5 27,0 15 8 18 10 NW 1018,4 20 60 0,0
20.07.2019 17:00:00 24,9 18,1 33,8 30,9 27,0 13 7 16 9 WNW 1018,1 20 60 0,0
20.07.2019 16:00:00 25,9 18,6 35,0 30,4 27,1 13 7 14 8 WNW 1018,1 20 60 0,0
20.07.2019 15:00:00 25,5 18,7 35,9 30,0 27,1 11 6 12 7 WNW 1018,1 20 60 0,0
20.07.2019 14:00:00 25,1 17,8 34,8 29,8 27,0 6 3 12 6 W 1017,7 20 60 0,0
20.07.2019 13:00:00 25,2 18,6 30,5 29,7 27,0 9 5 13 7 WSW 1017,5 20 38 0,0
20.07.2019 12:00:00 25,0 18,7 27,5 29,8 27,0 9 5 11 6 SW 1017,1 20 11 0,0
20.07.2019 11:00:00 24,3 18,0 28,9 29,9 27,0 7 4 9 5 SW 1016,8 20 48 0,0
20.07.2019 10:00:00 23,1 17,8 28,4 30,1 27,0 4 2 7 4 SW 1016,3 20 54 0,0
20.07.2019 09:00:00 21,7 19,1 22,2 30,4 27,0 0 0 4 2 N 1015,8 20 44 0,0
20.07.2019 08:00:00 20,0 18,7 19,7 30,7 27,0 0 0 5 3 N 1015,2 17 1 0,0
20.07.2019 07:00:00 19,7 18,5 19,3 31,1 27,0 6 3 10 5 NNW 1014,6 14 0 0,0
20.07.2019 06:00:00 19,5 18,0 19,4 31,4 26,9 0 0 5 3 N 1014,0 20 0 0,0
20.07.2019 05:00:00 19,6 18,3 19,0 31,8 27,0 3 1 16 9 NNE 1013,7 16 0 0,0
20.07.2019 04:00:00 19,9 18,4 19,1 32,1 26,9 15 8 25 14 NNW 1013,5 20 0 0,0
20.07.2019 03:00:00 19,8 17,4 19,3 32,5 26,9 8 4 20 11 N 1013,0 20 0 0,0
20.07.2019 02:00:00 19,9 17,5 19,3 32,8 26,9 15 8 30 16 N 1013,2 20 0 0,0
20.07.2019 01:00:00 20,0 18,0 19,8 33,0 26,9 19 10 36 19 N 1013,3 20 0 0,0
20.07.2019 00:00:00 20,2 18,1 20,0 33,2 26,9 24 13 34 18 N 1013,1 20 0 0,0
19.07.2019 23:00:00 20,5 18,1 19,7 33,2 26,9 24 13 29 16 N 1012,9 20 0 0,0
19.07.2019 22:00:00 20,9 17,1 20,6 33,1 26,9 17 9 32 17 N 1012,3 17 19 0,0
19.07.2019 21:00:00 22,4 17,5 23,5 32,8 27,0 24 13 35 19 N 1012,3 20 60 0,0
19.07.2019 20:00:00 23,7 17,4 27,0 32,3 26,9 25 14 35 19 N 1012,4 20 60 0,0
19.07.2019 19:00:00 24,6 17,1 30,4 31,8 27,0 22 12 32 18 N 1012,7 20 60 0,0
19.07.2019 18:00:00 25,1 17,3 33,1 31,2 27,0 23 12 29 16 N 1013,4 20 60 0,0
19.07.2019 17:00:00 25,3 17,5 34,4 30,6 27,0 22 12 28 15 N 1014,1 20 60 0,0
19.07.2019 16:00:00 24,2 17,2 33,8 30,0 27,0 19 10 23 13 NNW 1014,9 20 60 0,0
19.07.2019 15:00:00 23,8 17,1 33,6 29,6 27,0 17 9 22 12 NW 1015,6 20 60 0,0
19.07.2019 14:00:00 23,8 17,1 34,2 29,3 27,0 15 8 18 10 NW 1016,2 20 60 0,0
19.07.2019 13:00:00 23,6 16,6 30,1 29,2 27,0 11 6 16 8 W 1016,8 20 31 0,0
19.07.2019 12:00:00 24,2 16,5 29,2 29,3 27,0 13 7 16 8 SW 1017,2 20 23 0,0
19.07.2019 11:00:00 24,9 16,3 26,0 29,5 27,0 6 3 12 7 WSW 1017,5 20 50 0,0
19.07.2019 10:00:00 21,3 16,0 21,6 29,8 27,0 6 4 16 9 SE 1018,3 20 0 0,0
19.07.2019 09:00:00 19,5 16,0 19,7 30,1 26,9 8 4 16 9 SE 1018,2 20 0 0,0
19.07.2019 08:00:00 18,3 16,3 17,6 30,5 26,9 8 4 14 8 SE 1018,0 20 0 0,0
19.07.2019 07:00:00 17,4 15,9 17,3 30,9 26,9 8 4 10 6 SE 1018,0 20 0 0,0
19.07.2019 06:00:00 17,5 15,7 16,5 31,3 26,9 6 4 8 4 SE 1017,9 20 0 0,0
19.07.2019 05:00:00 17,1 15,3 16,2 31,7 26,9 5 3 6 3 SE 1018,3 17 0 0,0
19.07.2019 04:00:00 17,3 15,3 16,3 32,1 26,9 0 0 11 6 N 1018,4 18 0 0,0
19.07.2019 03:00:00 17,4 15,0 16,5 32,4 26,9 10 5 13 7 W 1018,7 19 0 0,0
19.07.2019 02:00:00 18,6 15,8 17,0 32,7 26,9 9 5 14 7 W 1018,9 17 0 0,0
19.07.2019 01:00:00 19,4 16,2 18,3 32,9 26,9 12 6 14 8 W 1019,0 20 0 0,0
19.07.2019 00:00:00 19,5 16,2 18,6 33,1 26,9 11 6 15 8 W 1019,0 20 0 0,0
18.07.2019 23:00:00 19,8 16,2 19,1 33,1 26,9 10 6 14 7 W 1019,1 20 0 0,0
18.07.2019 22:00:00 20,2 16,0 19,9 33,0 26,9 9 5 16 9 NW 1018,7 19 8 0,0
18.07.2019 21:00:00 21,4 15,9 22,2 32,8 26,9 15 8 22 12 WNW 1018,7 20 23 0,0
18.07.2019 20:00:00 22,4 15,3 26,1 32,3 26,9 14 7 17 9 W 1018,4 20 60 0,0
18.07.2019 19:00:00 22,7 14,8 29,9 31,8 27,0 14 8 18 10 W 1018,5 20 60 0,0
18.07.2019 18:00:00 23,9 14,6 31,1 31,2 26,9 12 7 18 10 WNW 1018,5 20 60 0,0
18.07.2019 17:00:00 23,5 13,9 33,0 30,5 26,9 14 8 20 11 W 1018,9 20 60 0,0
18.07.2019 16:00:00 23,8 13,1 33,7 30,0 27,0 13 7 16 9 W 1019,0 20 60 0,0
18.07.2019 15:00:00 24,4 13,9 34,6 29,5 27,0 9 5 11 6 W 1019,1 20 60 0,0
18.07.2019 14:00:00 23,6 13,7 32,8 29,2 27,0 7 4 14 7 WNW 1019,1 20 60 0,0
18.07.2019 13:00:00 24,2 14,0 33,1 29,1 27,0 11 6 15 8 WNW 1019,3 20 60 0,0
18.07.2019 12:00:00 22,9 13,7 29,2 29,2 27,0 10 5 13 7 WNW 1019,2 20 53 0,0
18.07.2019 11:00:00 21,5 13,9 26,5 29,4 26,9 11 6 15 8 WNW 1019,1 20 45 0,0
18.07.2019 10:00:00 21,0 13,9 23,9 29,7 26,9 10 5 13 7 NW 1018,9 20 53 0,0
18.07.2019 09:00:00 20,3 14,4 21,6 30,0 26,9 13 7 17 9 NW 1018,7 20 54 0,0
18.07.2019 08:00:00 19,3 14,5 18,4 30,4 26,9 14 8 16 9 NW 1018,4 18 7 0,0
18.07.2019 07:00:00 18,8 14,7 17,7 30,8 26,9 14 8 19 11 NW 1018,3 20 0 0,0
18.07.2019 06:00:00 19,2 14,9 17,8 31,2 26,9 18 10 22 12 NW 1018,0 20 0 0,0
18.07.2019 05:00:00 19,0 14,0 18,0 31,6 26,9 17 9 24 13 WNW 1017,8 20 0 0,0
18.07.2019 04:00:00 19,2 14,0 18,4 32,0 26,9 20 11 29 15 WNW 1018,2 20 0 0,0
18.07.2019 03:00:00 19,5 13,7 18,6 32,4 26,9 23 13 29 16 WNW 1018,5 20 0 0,0
18.07.2019 02:00:00 19,3 14,3 18,7 32,7 26,9 21 11 29 15 WNW 1018,5 20 0 0,0
18.07.2019 01:00:00 19,5 14,9 18,8 33,0 26,8 20 11 29 16 WNW 1018,6 20 0 0,0
18.07.2019 00:00:00 19,5 14,3 18,9 33,2 26,9 23 12 29 16 NW 1018,4 20 0 0,0
17.07.2019 23:00:00 19,8 15,4 19,2 33,3 26,9 21 11 27 15 NW 1018,5 20 0 0,0
17.07.2019 22:00:00 19,9 15,1 19,5 33,2 26,9 21 11 29 15 NW 1018,2 20 8 0,0
17.07.2019 21:00:00 20,8 16,2 21,6 33,0 26,9 22 12 27 15 NW 1017,8 20 40 0,0
17.07.2019 20:00:00 22,0 16,7 24,2 32,6 26,9 20 11 25 14 NW 1017,3 20 46 0,0
17.07.2019 19:00:00 22,3 16,8 26,7 32,1 26,9 20 11 25 14 NW 1017,2 20 58 0,0
17.07.2019 18:00:00 24,1 17,3 32,5 31,5 26,9 20 11 25 14 NW 1017,3 20 60 0,0
17.07.2019 17:00:00 25,0 17,7 33,7 30,8 26,9 20 11 24 13 NW 1017,5 20 60 0,0
17.07.2019 16:00:00 24,8 17,8 33,7 30,3 26,9 17 9 20 11 NW 1017,4 20 60 0,0
17.07.2019 15:00:00 24,1 18,3 33,7 29,8 26,9 15 8 18 10 NW 1017,4 20 60 0,0
17.07.2019 14:00:00 24,4 18,8 33,6 29,5 26,9 12 7 17 9 NW 1017,4 20 60 0,0
17.07.2019 13:00:00 24,0 18,2 33,2 29,3 26,9 10 5 13 7 NW 1017,5 20 60 0,0
17.07.2019 12:00:00 23,9 18,1 29,7 29,4 26,9 10 6 13 7 NW 1017,3 20 60 0,0
17.07.2019 11:00:00 22,3 18,1 29,6 29,6 26,9 8 4 9 5 NW 1016,9 20 60 0,0
17.07.2019 10:00:00 22,6 18,2 28,3 29,9 26,9 6 4 11 6 NNW 1016,8 20 58 0,0
17.07.2019 09:00:00 20,8 18,6 23,0 30,3 26,9 6 3 8 4 NNW 1016,7 16 41 0,0
17.07.2019 08:00:00 19,0 18,0 16,8 30,6 26,8 0 0 9 5 N 1016,5 16 18 0,0
17.07.2019 07:00:00 17,5 16,4 15,8 31,0 26,8 9 5 11 6 S 1016,5 16 0 0,0
17.07.2019 06:00:00 17,4 15,9 16,0 31,4 26,9 0 0 7 4 N 1016,3 20 0 0,0
17.07.2019 05:00:00 18,6 17,1 16,4 31,8 26,8 3 2 7 4 NNW 1016,1 20 0 0,0
17.07.2019 04:00:00 17,6 15,8 16,4 32,2 26,8 2 1 6 3 N 1016,6 20 0 0,0
17.07.2019 03:00:00 18,2 16,0 16,6 32,5 26,8 0 0 5 3 N 1017,1 7 0 0,0
17.07.2019 02:00:00 18,9 15,8 17,7 32,8 26,8 4 2 9 5 N 1017,1 20 0 0,0
17.07.2019 01:00:00 19,5 16,0 18,9 33,0 26,8 5 3 11 6 NNE 1016,9 20 0 0,0
17.07.2019 00:00:00 19,9 16,7 19,2 33,2 26,8 6 4 10 6 NNE 1017,2 20 0 0,0
16.07.2019 23:00:00 20,5 17,5 20,0 33,3 26,8 4 2 11 6 NNE 1017,2 20 0 0,0
16.07.2019 22:00:00 21,3 17,7 20,8 33,2 26,8 9 5 16 9 N 1017,0 20 21 0,0
16.07.2019 21:00:00 22,5 17,2 23,6 32,9 26,8 11 6 15 8 N 1016,7 20 53 0,0
16.07.2019 20:00:00 23,6 17,6 27,4 32,4 26,9 12 7 16 9 NW 1016,9 20 60 0,0
16.07.2019 19:00:00 25,0 17,7 31,4 31,8 26,8 13 7 18 10 NW 1016,4 20 60 0,0
16.07.2019 18:00:00 25,4 17,3 32,2 31,3 26,9 13 7 18 10 NW 1016,7 20 60 0,0
16.07.2019 17:00:00 25,9 17,3 33,9 30,6 26,9 14 8 21 11 NW 1017,0 20 60 0,0
16.07.2019 16:00:00 25,7 17,6 34,5 29,9 26,9 16 9 20 11 NW 1017,3 20 60 0,0
16.07.2019 15:00:00 25,0 16,2 35,0 29,4 26,9 16 9 19 10 WNW 1017,5 20 60 0,0
16.07.2019 14:00:00 25,0 17,0 35,3 29,0 26,9 13 7 16 9 NW 1017,7 20 60 0,0
16.07.2019 13:00:00 24,2 15,1 34,9 28,9 26,9 11 6 13 7 NW 1017,9 20 60 0,0
16.07.2019 12:00:00 24,1 15,0 33,6 29,0 26,9 7 4 9 5 NW 1018,0 20 60 0,0
16.07.2019 11:00:00 23,5 13,4 31,4 29,2 26,9 4 2 7 4 NW 1017,9 20 60 0,0
16.07.2019 10:00:00 20,8 15,3 23,3 29,6 26,9 3 2 9 5 SW 1018,2 20 42 0,0
16.07.2019 09:00:00 17,8 15,8 17,9 29,9 26,9 3 1 8 5 SSE 1018,0 20 10 0,0
16.07.2019 08:00:00 16,5 15,4 14,5 30,4 26,9 5 3 13 7 SSE 1017,7 20 14 0,0
16.07.2019 07:00:00 15,3 14,2 13,3 30,8 26,9 10 5 13 7 S 1017,5 18 0 0,0
16.07.2019 06:00:00 16,1 14,5 13,8 31,2 26,8 0 0 6 3 N 1017,1 20 0 0,0
16.07.2019 05:00:00 16,7 14,5 14,5 31,6 26,8 6 3 7 4 N 1017,1 20 0 0,0
16.07.2019 04:00:00 17,8 15,4 16,5 32,0 26,8 6 3 8 5 NE 1017,3 20 0 0,0
16.07.2019 03:00:00 17,8 14,5 16,3 32,4 26,8 7 4 10 5 NNE 1017,7 20 0 0,0
16.07.2019 02:00:00 17,9 14,8 16,5 32,8 26,8 6 4 13 7 NE 1017,9 20 0 0,0
16.07.2019 01:00:00 18,3 15,4 17,2 33,1 26,8 6 3 18 10 NE 1018,1 20 0 0,0
16.07.2019 00:00:00 19,0 15,9 18,3 33,3 26,8 11 6 28 15 NNE 1018,2 20 0 0,0
15.07.2019 23:00:00 19,4 16,4 18,9 33,4 26,8 21 12 32 17 N 1018,2 20 0 0,0
15.07.2019 22:00:00 20,0 15,0 19,3 33,3 26,8 20 11 31 17 N 1017,6 20 5 0,0
15.07.2019 21:00:00 22,3 15,4 23,1 33,1 26,8 26 14 37 20 N 1017,1 20 60 0,0
15.07.2019 20:00:00 22,9 15,2 25,9 32,7 26,8 22 12 33 18 N 1017,1 20 60 0,0
15.07.2019 19:00:00 24,3 13,8 30,6 32,3 26,8 26 14 36 19 N 1016,8 20 60 0,0
15.07.2019 18:00:00 24,2 13,7 31,5 31,6 26,8 24 13 33 18 N 1016,9 20 60 0,0
15.07.2019 17:00:00 24,7 15,3 32,8 31,0 26,8 26 14 35 19 N 1017,1 20 60 0,0
15.07.2019 16:00:00 24,4 14,5 33,1 30,5 26,8 27 15 35 19 N 1017,2 20 60 0,0

tt = Température de l'air
td = dewpoint
tt 5cm = Température de l'air 5cm
tt -20cm = Température de l'air -20cm
tt -100cm = Température de l'air -100cm
ff = Vitesse du vent
fx = gusts
dd = Direction du vent
ppp = reduced air pressure
vv = visibility
sd = Ensoleillement
rr = Quantités de précipitations

stations d'obs. à proximité